Regional Weather Roundup
Issued by NWS

Home | Current Version | Previous Version | Text Only | Print | Product List | Glossary Off
Versions: 1 2 3 4 5 6 7 8 9 10 11 12 13 14 15 16 17 18 19 20 21 22 23 24 25 26 27 28 29 30 31 32 33 34 35 36 37 38 39 40 41 42 43 44 45 46 47 48 49 50

000
ASUS43 KFSD 281110
RWRSD

WEATHER ROUNDUP FOR SOUTH DAKOTA
NATIONAL WEATHER SERVICE SIOUX FALLS SD
500 AM CST SUN DEC 28 2014

NOTE: "FAIR" INDICATES FEW OR NO CLOUDS BELOW 12,000 FEET WITH NO
SIGNIFICANT WEATHER AND/OR OBSTRUCTIONS TO VISIBILITY.


SDZ001>005-009-010-012>017-281200-
NORTHWEST AND NORTH CENTRAL SOUTH DAKOTA

CITY           SKY/WX    TMP DP  RH WIND       PRES   REMARKS
BUFFALO          N/A     19  10  68 CALM      29.84F
FAITH            N/A     17  10  74 SW7       29.96F WCI   8
MOBRIDGE       MOCLDY    11   8  88 E3        30.01S
$$

SDZ012>016-024>037-041>051-057-063-072>074-281200-
SOUTHWEST AND SOUTH CENTRAL SOUTH DAKOTA

CITY           SKY/WX    TMP DP  RH WIND       PRES   REMARKS
RAPID CTY ARPT PTCLDY     7   2  80 CALM      29.94F
PIERRE         CLEAR     12   8  84 W5        30.03F WCI   4
CUSTER         PTCLDY    12   1  61 NW5       29.84F WCI   4
ELLSWORTH AFB  PTCLDY    15   5  63 W6        29.93F WCI   6
PHILIP         CLEAR      9   5  84 W3        30.01F
PINE RIDGE     PTCLDY    -1  -5  82 CALM      29.98F
SPEARFISH      FAIR      18   5  57 CALM      29.90F
WINNER         FAIR      14   5  67 SW8       30.03F WCI   3
$$

SDZ004>011-016>023-039-040-281200-
NORTHEAST SOUTH DAKOTA

CITY           SKY/WX    TMP DP  RH WIND       PRES   REMARKS
ABERDEEN       CLOUDY    12   9  87 CALM      30.08S
WATERTOWN      MOCLDY     3   0  87 CALM      30.04S
SISSETON         N/A     20  16  84 N9        30.08R WCI   9
$$

SDZ017-020-022-023-036>040-048>070-281200-
SOUTHEAST SOUTH DAKOTA

CITY           SKY/WX    TMP DP  RH WIND       PRES   REMARKS
SIOUX FALLS    PTCLDY     2  -1  88 CALM      30.08S
HURON          CLEAR      1  -3  83 CALM      30.09R
CHAMBERLAIN    CLEAR      7   4  88 CALM      30.07S
MITCHELL       CLEAR      9   7  92 W5        30.09S WCI   1
YANKTON          N/A      9   3  78 CALM      30.11S VSB 3/4
$$

ABBREVIATIONS USED IN REMARKS
   TC - TEMPERATURE IN CELSIUS
  WCI - WIND CHILL INDEX
   HX - HEAT INDEX
  VSB - VISIBILITY




USA.gov is the U.S. government's official web portal to all federal, state and local government web resources and services.